Regional Weather Roundup
Issued by NWS

Home | Current Version | Previous Version | Graphics & Text | Print | Product List | Glossary On
Versions: 1 2 3 4 5 6 7 8 9 10 11 12 13 14 15 16 17 18 19 20 21 22 23 24 25 26 27 28 29 30 31 32 33 34 35 36 37 38 39 40 41 42 43 44 45 46 47 48 49 50
549
ASUS45 KBOU 251007
RWRCO

WEATHER ROUNDUP FOR COLORADO
NATIONAL WEATHER SERVICE DENVER/BOULDER CO
400 AM MDT THU AUG 25 2016

NOTE: "FAIR" INDICATES FEW OR NO CLOUDS BELOW 12000 FEET WITH NO
SIGNIFICANT WEATHER AND/OR OBSTRUCTIONS TO VISIBILITY.

COZ001>005-013-030-031-251100-
...NORTHWEST COLORADO...

CITY           SKY/WX    TMP DP  RH WIND       PRES   REMARKS
CRAIG          FAIR      44  38  79 CALM      30.24R
HAYDEN         FAIR      46  32  57 S3        30.24R
MEEKER         FAIR      46  39  76 E6        30.23S
MOUNT WERNER   NOT AVBL
STEAMBOAT SPGS FAIR      44  37  73 CALM      30.26S
WALDEN         FAIR      36  32  87 SE8       30.33S
$$

COZ006>008-011-251100-
...WEST CENTRAL VALLEYS...

CITY           SKY/WX    TMP DP  RH WIND       PRES   REMARKS
GRAND JUNCTION FAIR      59  48  67 E13       30.14F
MONTROSE       FAIR      52  43  71 S6        30.24F
EAGLE          FAIR      52  36  54 E6        30.29R
RIFLE          FAIR      53  44  71 CALM      30.20R
DELTA          NOT AVBL
NUCLA          FAIR      52  43  71 SE8       30.26S
$$

COZ017>023-064>068-251100-
...SOUTHWEST COLORADO...

CITY           SKY/WX    TMP DP  RH WIND       PRES   REMARKS
DURANGO        FAIR      47  44  90 N6        30.29S
CORTEZ         FAIR      50  47  89 CALM      30.23S
PAGOSA SPRINGS FAIR      45  44  98 CALM      30.36S
TELLURIDE      FAIR      44  39  81 SE5       30.43S
WOLF CREEK PAS FAIR      37  34  87 SW7       30.59S
$$

COZ009-010-012-014-032>034-037-058>063-251100-
...CENTRAL COLORADO...

CITY           SKY/WX    TMP DP  RH WIND       PRES   REMARKS
ASPEN          FAIR      43  36  76 S9        30.33S
BUENA VISTA    FAIR      45  42  91 CALM      30.38S
COPPER MTN     FAIR      41  32  70 S9        30.55F
BERTHOUD PASS  FAIR      34  21  60 W9        30.56S WCI  26
COTTONWOOD PAS FAIR      46  36  66 SW3       30.45S
GUNNISON       FAIR      46  39  76 N6        30.39R
KREMMLING      FAIR      37  36  93 CALM      30.34S
LEADVILLE      CLOUDY    42  39  89 CALM      30.45S
MONARCH PASS   FAIR      37  32  81 W16       30.65S
SALIDA         CLOUDY    47  43  84 SW6       30.44S
SUNLIGHT       FAIR      45  30  57 NE6       30.50F
WILKERSON PASS FAIR      36  36 100 SW6       30.54F
$$

COZ069>075-251100-
...SAN LUIS VALLEY/SANGRE DE CRISTO MOUNTAINS...

CITY           SKY/WX    TMP DP  RH WIND       PRES   REMARKS
ALAMOSA        FAIR      38  37  97 W7        30.35S
LA VETA PASS   FAIR      39  36  87 S5        30.45F
SAGUACHE       FAIR      43  41  93 NW6       30.38R
$$

COZ035-036-038>040-251100-
...NORTHERN COLORADO FRONT RANGE...

CITY           SKY/WX    TMP DP  RH WIND       PRES   REMARKS
DENVER INTL AP FAIR      51  39  63 S14       30.22S
DMNS CITY PARK   N/A     48  46  91 E7        30.21S
AURORA         PTCLDY    50  37  59 VRB1      30.23S
FRONT RANGE AP NOT AVBL
ERIE MUNI ARPT FAIR      47  46  97 CALM      30.22S FOG
BOULDER MUN AP FAIR      52  48  87 CALM      30.22S
CENTENNIAL     FAIR      50  37  61 S5        30.23S
BROOMFIELD     FAIR      54  46  76 NW6       30.24R
FORT COLLINS   MOCLDY    48  48 100 N6        30.22F VSB 3/4
LONGMONT       FAIR      51  47  84 CALM      30.23S HAZE
$$

COZ041-046-047-076>085-087-088-251100-
...PIKES PEAK/PALMER DIVIDE AND SOUTHERN FOOTHILLS...

CITY           SKY/WX    TMP DP  RH WIND       PRES   REMARKS
COLO. SPRINGS  FAIR      44  36  73 N6        30.28F
A. F. ACADEMY  FAIR      41  39  93 N8        30.28F
SCHRIEVER AFB  NOT AVBL
ELLICOTT       FAIR     N/A N/A N/A CALM      30.26
FALCON         FAIR      44  34  68 W5        30.30F
FORT CARSON    NOT AVBL
LIMON          FAIR      39  33  79 N6        30.24S
MONUMENT HILL  FAIR      41  34  75 S12       30.30F
TRINIDAD       FAIR      53  49  86 W9        30.26F
$$

COZ042>045-048>051-090-091-251100-
...NORTHEAST COLORADO...

CITY           SKY/WX    TMP DP  RH WIND       PRES   REMARKS
GREELEY ARPT   FAIR      48  45  87 E6        30.22S
AKRON          FAIR      51  38  60 SE7       30.23S
BURLINGTON     FAIR      54  43  66 N3        30.20S
WRAY           FAIR      48  41  76 SW5       30.20S
STERLING       FAIR      43  39  87 CALM      30.20F
HOLYOKE        FAIR      48  43  81 W5        30.20S
FORT MORGAN    FAIR      47  38  72 E6        30.23S
$$

COZ086-089-092>099-251100-
...SOUTHEAST COLORADO...

CITY           SKY/WX    TMP DP  RH WIND       PRES   REMARKS
PUEBLO         FAIR      52  44  74 CALM      30.22S
LA JUNTA       FAIR      59  44  57 N3        30.19F
LAMAR          FAIR      59  53  80 CALM      30.16S
SPRINGFIELD      N/A     56  53  90 NW9       30.17F
$$




USA.gov is the U.S. government's official web portal to all federal, state and local government web resources and services.